Regional Weather Roundup
Issued by NWS

Home | Current Version | Previous Version | Graphics & Text | Print | Product List | Glossary On
Versions: 1 2 3 4 5 6 7 8 9 10 11 12 13 14 15 16 17 18 19 20 21 22 23 24 25 26 27 28 29 30 31 32 33 34 35 36 37 38 39 40 41 42 43 44 45 46 47 48 49 50
000
ASUS43 KMPX 291801
RWRMN
WEATHER ROUNDUP FOR MINNESOTA
NATIONAL WEATHER SERVICE TWIN CITIES/CHANHASSEN MN
1200 PM CST THU JAN 29 2015


NOTE: "FAIR" INDICATES FEW OR NO CLOUDS BELOW 12,000 FEET WITH NO
SIGNIFICANT WEATHER AND/OR OBSTRUCTIONS TO VISIBILITY. N/A MEANS
CURRENT SKY AND/OR WEATHER CONDITIONS ARE NOT AVAILABLE.

MNZ060>063-068>070-291900-
   Twin Cities Metro

CITY           SKY/WX    TMP DP  RH WIND       PRES   REMARKS
TWIN CITIES    PTSUNNY   31  21  66 NW18G28   30.23R WCI  19
6HR MIN TEMP:  30; 6HR MAX TEMP:  34; 6HR PCP: TRACE;

ST PAUL        PTSUNNY   33  22  63 NW22G29   30.23R WCI  21
CRYSTAL        PTSUNNY   31  20  63 NW20G30   30.23R WCI  19
BLAINE         PTSUNNY   32  23  69 NW20G28   30.22R WCI  20
LAKEVILLE      PTSUNNY   28  23  80 W20G26    30.22R WCI  15
EDEN PRAIRIE   CLOUDY    30  20  66 NW20G28   30.23R WCI  17
6HR MIN TEMP:  30; 6HR MAX TEMP:  32;

SOUTH ST PAUL  PTSUNNY   33  23  68 NW14      30.22R WCI  23
LAKE ELMO      CLOUDY    32  25  74 W16       30.21R WCI  21
$$
MNZ001>005-007-008-013>017-022>024-027-028-291900-
   Northwest Minnesota

CITY           SKY/WX    TMP DP  RH WIND       PRES   REMARKS
BEMIDJI        PTSUNNY   11   5  77 NW22      30.34R WCI  -8
HALLOCK        PTSUNNY    9   1  72 N22G29    30.51S WCI -11
ROSEAU         SUNNY      9   1  72 NW18      30.43R WCI -10
WARROAD        SUNNY      7   0  72 NW17G23   30.41R WCI -12
THIEF RVR FALL SUNNY     10   3  72 NW20      30.44S WCI  -8
CROOKSTON      MOSUNNY   10   7  85 N26G33    30.51R WCI -11
FOSSTON        CLOUDY    10   5  79 NW21      30.42R HAZE    WCI  -9
DETROIT LAKES  PTSUNNY   14   9  79 NW24G31   30.41R HAZE    WCI  -5
MOORHEAD       MIX PCPN  18  10  73 N24G31    30.49R WCI   0
PARK RAPIDS    FLURRIES  16   9  74 NW20G26   30.32R WCI  -1
MAHNOMEN       CLOUDY    10   5  80 NW22      30.42R HAZE    WCI  -9
$$
MNZ006-009>011-018-025>026-291900-
   North Central Minnesota

CITY           SKY/WX    TMP DP  RH WIND       PRES   REMARKS
BAUDETTE       CLOUDY     6  -1  73 NW16G24   30.36R WCI -12
FLAG ISLAND    SUNNY      3  -2  78 NW21      30.39R WCI -18
INTL FALLS     CLOUDY    11   4  73 NW17      30.29R WCI  -6
6HR MIN TEMP:  11; 6HR MAX TEMP:  20; 6HR PCP: TRACE;

WASKISH        CLOUDY     9   3  78 NW12      30.36R WCI  -6
BIG FORK       LGT SNOW  12   5  73 NW7G16    30.29R WCI   2
LONGVILLE      LGT SNOW  16   9  73 NW14G22   30.30R WCI   1
GRAND RAPIDS   CLOUDY    16   9  73 NW23G30   30.24R WCI  -2
CRANE LAKE     FLURRIES  14   9  79 NW9       30.25R WCI   2
ORR            FLURRIES  12   7  79 NW16G23   30.21R WCI  -4
COOK           FLURRIES  14   9  79 NW14G20   30.22R WCI  -1
WALKER         FLURRIES  13   8  78 NW13G22   30.32R WCI  -1
$$
MNZ012-019>021-037-291900-
   Northeast Minnesota

CITY           SKY/WX    TMP DP  RH WIND       PRES   REMARKS
DULUTH         FLURRIES  22  14  71 NW16G28   30.15R WCI   8
6HR MIN TEMP:  22; 6HR MAX TEMP:  28; 6HR PCP: TRACE;

ELY            LGT SNOW  18  10  73 NW13G20   30.15R WCI   4
HIBBING        LGT SNOW  16   8  71 NW23      30.21R WCI  -2
EVELETH        LGT SNOW  18  12  79 NW17G23   30.21R WCI   2
DULUTH HARBOR  CLOUDY    27  19  74 NW16      30.21R WCI  14
TWO HARBORS    FLURRIES  27  19  74 NW10G23   30.12R WCI  17
SILVER BAY     CLOUDY    27  16  63 NW7       30.11R WCI  19
GRAND MARAIS     N/A     24  11  57 NW9G21    30.13R WCI  14
G MARAIS ARPRT LGT SNOW  14   7  73 NW13G22   30.03R VSB 1   WCI   0
$$
MNZ029>031-032-039>041-046>048-054>057-064-291900-
   West Central Minnesota

CITY           SKY/WX    TMP DP  RH WIND       PRES   REMARKS
FERGUS FALLS   FLURRIES  18  10  73 N22G33    30.46R WCI   0
WHEATON        LGT SNOW  19  16  86 N20G28    30.47R WCI   4
MORRIS         FLURRIES  21  16  79 N30       30.39R WCI   3
ALEXANDRIA     CLOUDY    20  12  71 NW23G32   30.35R WCI   3
ELBOW LAKE     FLURRIES  18  13  80 NW22G30   30.41R WCI   1
WADENA         FLURRIES  16  10  79 NW20      30.34R WCI  -1
GLENWOOD       FLURRIES  19  16  86 NW26G35   30.35R WCI   1
APPLETON       CLOUDY    27  18  69 NW22G32   30.42R WCI  12
BENSON         CLOUDY    23  16  74 N22G32    30.39R WCI   8
ORTONVILLE     CLOUDY    25  19  80 N18       30.42R WCI  11
MADISON        CLOUDY    28  25  86 N16G23    30.42R WCI  17
WILLMAR        PTSUNNY   25  18  74 NW22G31   30.37R WCI  10
$$
MNZ033>034-036-042>043-049>051-058-059-291900-
   Central Minnesota

CITY           SKY/WX    TMP DP  RH WIND       PRES   REMARKS
ST CLOUD       CLOUDY    26  16  65 NW17G35   30.27R WCI  13
6HR MIN TEMP:  25; 6HR MAX TEMP:  28;

SAUK CENTRE    CLOUDY    20  14  76 NW17G33   30.33R WCI   6
PAYNESVILLE    CLOUDY    20  15  81 W21G31    30.33R WCI   4
AITKIN         LGT RAIN  23  16  74 NW12G21   30.25R WCI  12
PINE RIVER     FLURRIES  18  10  73 NW13G24   30.33R WCI   4
BRAINERD       CLOUDY    21  13  71 NW17G24   30.28R WCI   7
STAPLES        FLURRIES  18  14  86 NW18G24   30.31R WCI   2
LONG PRAIRIE   LGT SNOW  19  14  79 W22G31    30.32R WCI   3
LITTLE FALLS   CLOUDY    23  14  68 NW15G23   30.30R WCI  10
LITCHFIELD     CLOUDY    27  21  80 NW16G26   30.31R WCI  14
BUFFALO        MOSUNNY   29  19  67 NW16G24   30.27S WCI  17
MAPLE LAKE     MOSUNNY   29  22  73 W16       30.28R WCI  18
$$
MNZ037-044-045-052-053-291900-
   East Central Minnesota

CITY           SKY/WX    TMP DP  RH WIND       PRES   REMARKS
PRINCETON      CLOUDY    28  19  69 NW20G25   30.26R WCI  15
MORA           CLOUDY    27  18  69 NW16G30   30.25R WCI  14
CAMBRIDGE      CLOUDY    30  18  59 NW13G29   30.22R WCI  20
RUSH CITY      CLOUDY    27  19  71 NW16G24   30.22R WCI  15
MOOSE LAKE     CLOUDY    27  18  69 NW13G21   30.19R WCI  16
HINCKLEY       CLOUDY    28  19  69 NW13G21   30.21R WCI  18
CLOQUET        FLURRIES  21  16  79 NW22G30   30.17R WCI   5
MCGREGOR       CLOUDY    23  16  74 NW14G26   30.24R WCI  11
$$
MNZ071>073-080-081-089-090-097-098-291900-
   Southwest Minnesota

CITY           SKY/WX    TMP DP  RH WIND       PRES   REMARKS
MONTEVIDEO     CLOUDY    25  19  80 N22G31    30.41R WCI  10
GRANITE FALLS  CLOUDY    26  19  77 NW21G30   30.41R WCI  11
CANBY          CLOUDY    27  22  82 NW15G21   30.42R WCI  15
MARSHALL       CLOUDY    27  18  69 N21G30    30.40R WCI  13
REDWOOD FALLS  CLOUDY    26  17  68 NW23G32   30.36R WCI  11
OLIVIA         CLOUDY    25  19  80 NW21G30   30.36R WCI  10
PIPESTONE      CLOUDY    28  25  86 N10G28    30.36S WCI  19
WINDOM         CLOUDY    28  23  80 NW30G36   30.34R WCI  13
WORTHINGTON    CLOUDY    28  21  74 NW28G33   30.36R WCI  13
JACKSON        CLOUDY    30  23  74 NW29      30.32S WCI  15
TRACY          CLOUDY    28  22  79 N23       30.38R WCI  14
SLAYTON        CLOUDY    27  22  82 NW18G28   30.36R WCI  14
$$
MNZ065>067-074>077-082>085-091>093-291900-
   South Central Minnesota

CITY           SKY/WX    TMP DP  RH WIND       PRES   REMARKS
MANKATO        CLOUDY    28  21  74 NW22G33   30.28R WCI  15
NEW ULM        CLOUDY    28  21  74 NW24G30   30.32R WCI  14
ST JAMES       CLOUDY    30  25  80 NW25G32   30.33R WCI  16
FAIRMONT       CLOUDY    30  21  69 NW23G30   30.28R WCI  17
GLENCOE        CLOUDY    30  24  77 NW24G30   30.28R WCI  16
FARIBAULT      CLOUDY    30  25  80 W23G30    30.24R WCI  17
OWATONNA       CLOUDY    30  25  80 NW21G29   30.23R WCI  17
WASECA         CLOUDY    32  27  80 NW21G31   30.26R WCI  20
ALBERT LEA     CLOUDY    30  27  86 NW18G26   30.22R WCI  18
$$
MNZ078>079-086>088-094>096-291900-
   Southeast Minnesota

CITY           SKY/WX    TMP DP  RH WIND       PRES   REMARKS
ROCHESTER      CLOUDY    30  25  81 NW24G32   30.16R WCI  16
6HR MIN TEMP:  29; 6HR MAX TEMP:  33; 6HR PCP: TRACE;

RED WING       CLOUDY    34  21  60 NW13G18   30.18R WCI  25
STANTON        CLOUDY    32  25  74 NW23      30.20R WCI  19
DODGE CENTER   CLOUDY    30  27  86 NW18G31   30.18R WCI  18
WINONA         CLOUDY    34  28  80 NW23G30   30.14R WCI  22
AUSTIN         CLOUDY    30  25  80 NW21G30   30.19R WCI  17
PRESTON        CLOUDY    30  26  83 NW20G30   30.14R WCI  17
$$
ABBREVIATIONS USED IN REMARKS
   TC - TEMPERATURES IN CELSIUS
  WCI - WIND CHILL INDEX
   HX - HEAT INDEX
  VSB - VISIBILITY
$$


USA.gov is the U.S. government's official web portal to all federal, state and local government web resources and services.